Year,Month,Day,Hour,Minute,Value (Times are PST for temperature in C)
2013,04,15,00,00,5.10
2013,04,15,00,01,5.20
2013,04,15,00,02,5.20
2013,04,15,00,03,5.20
2013,04,15,00,04,5.30
2013,04,15,00,05,5.30
2013,04,15,00,06,5.30
2013,04,15,00,07,5.30
2013,04,15,00,08,5.40
2013,04,15,00,09,5.30
2013,04,15,00,10,5.30
2013,04,15,00,11,5.30
2013,04,15,00,12,5.30
2013,04,15,00,13,5.30
2013,04,15,00,14,5.30
2013,04,15,00,15,5.30
2013,04,15,00,16,5.30
2013,04,15,00,17,5.30
2013,04,15,00,18,5.30
2013,04,15,00,19,5.30
2013,04,15,00,20,5.20
2013,04,15,00,21,5.20
2013,04,15,00,22,5.20
2013,04,15,00,23,5.10
2013,04,15,00,24,5.00
2013,04,15,00,25,5.00
2013,04,15,00,26,4.90
2013,04,15,00,27,4.90
2013,04,15,00,28,4.80
2013,04,15,00,29,4.70
2013,04,15,00,30,4.70
2013,04,15,00,31,4.60
2013,04,15,00,32,4.50
2013,04,15,00,33,4.40
2013,04,15,00,34,4.30
2013,04,15,00,35,4.20
2013,04,15,00,36,4.10
2013,04,15,00,37,4.10
2013,04,15,00,38,4.10
2013,04,15,00,39,4.10
2013,04,15,00,40,4.10
2013,04,15,00,41,4.10
2013,04,15,00,42,4.10
2013,04,15,00,43,4.10
2013,04,15,00,44,4.10
2013,04,15,00,45,4.10
2013,04,15,00,46,4.20
2013,04,15,00,47,4.10
2013,04,15,00,48,4.10
2013,04,15,00,49,4.00
2013,04,15,00,50,4.00
2013,04,15,00,51,4.00
2013,04,15,00,52,4.00
2013,04,15,00,53,4.00
2013,04,15,00,54,4.10
2013,04,15,00,55,4.10
2013,04,15,00,56,4.10
2013,04,15,00,57,4.20
2013,04,15,00,58,4.20
2013,04,15,00,59,4.20
2013,04,15,01,00,4.30
2013,04,15,01,01,4.40
2013,04,15,01,02,4.40
2013,04,15,01,03,4.50
2013,04,15,01,04,4.60
2013,04,15,01,05,4.60
2013,04,15,01,06,4.70
2013,04,15,01,07,4.70
2013,04,15,01,08,4.70
2013,04,15,01,09,4.80
2013,04,15,01,10,4.90
2013,04,15,01,11,4.90
2013,04,15,01,12,5.00
2013,04,15,01,13,5.00
2013,04,15,01,14,5.10
2013,04,15,01,15,5.10
2013,04,15,01,16,5.10
2013,04,15,01,17,5.20
2013,04,15,01,18,5.20
2013,04,15,01,19,5.20
2013,04,15,01,20,5.20
2013,04,15,01,21,5.20
2013,04,15,01,22,5.20
2013,04,15,01,23,5.20
2013,04,15,01,24,5.20
2013,04,15,01,25,5.20
2013,04,15,01,26,5.20
2013,04,15,01,27,5.20
2013,04,15,01,28,5.20
2013,04,15,01,29,5.20
2013,04,15,01,30,5.20
2013,04,15,01,31,5.20
2013,04,15,01,32,5.20
2013,04,15,01,33,5.20
2013,04,15,01,34,5.20
2013,04,15,01,35,5.20
2013,04,15,01,36,5.20
2013,04,15,01,37,5.20
2013,04,15,01,38,5.20
2013,04,15,01,39,5.20
2013,04,15,01,40,5.20
2013,04,15,01,41,5.20
2013,04,15,01,42,5.20
2013,04,15,01,43,5.20
2013,04,15,01,44,5.20
2013,04,15,01,45,5.20
2013,04,15,01,46,5.20
2013,04,15,01,47,5.20
2013,04,15,01,48,5.20
2013,04,15,01,49,5.20
2013,04,15,01,50,5.20
2013,04,15,01,51,5.20
2013,04,15,01,52,5.20
2013,04,15,01,53,5.20
2013,04,15,01,54,5.20
2013,04,15,01,55,5.20
2013,04,15,01,56,5.30
2013,04,15,01,57,5.30
2013,04,15,01,58,5.30
2013,04,15,01,59,5.30
2013,04,15,02,00,5.30
2013,04,15,02,01,5.40
2013,04,15,02,02,5.40
2013,04,15,02,03,5.40
2013,04,15,02,04,5.40
2013,04,15,02,05,5.40
2013,04,15,02,06,5.40
2013,04,15,02,07,5.40
2013,04,15,02,08,5.40
2013,04,15,02,09,5.40
2013,04,15,02,10,5.50
2013,04,15,02,11,5.50
2013,04,15,02,12,5.50
2013,04,15,02,13,5.50
2013,04,15,02,14,5.50
2013,04,15,02,15,5.60
2013,04,15,02,16,5.60
2013,04,15,02,17,5.60
2013,04,15,02,18,5.70
2013,04,15,02,19,5.70
2013,04,15,02,20,5.70
2013,04,15,02,21,5.70
2013,04,15,02,22,5.80
2013,04,15,02,23,5.80
2013,04,15,02,24,5.80
2013,04,15,02,25,5.80
2013,04,15,02,26,5.80
2013,04,15,02,27,5.80
2013,04,15,02,28,5.80
2013,04,15,02,29,5.80
2013,04,15,02,30,5.90
2013,04,15,02,31,5.90
2013,04,15,02,32,5.90
2013,04,15,02,33,5.90
2013,04,15,02,34,5.90
2013,04,15,02,35,6.00
2013,04,15,02,36,6.00
2013,04,15,02,37,6.00
2013,04,15,02,38,6.00
2013,04,15,02,39,6.00
2013,04,15,02,40,6.00
2013,04,15,02,41,6.10
2013,04,15,02,42,6.10
2013,04,15,02,43,6.10
2013,04,15,02,44,6.10
2013,04,15,02,45,6.10
2013,04,15,02,46,6.10
2013,04,15,02,47,6.10
2013,04,15,02,48,6.10
2013,04,15,02,49,6.10
2013,04,15,02,50,6.10
2013,04,15,02,51,6.10
2013,04,15,02,52,6.10
2013,04,15,02,53,6.20
2013,04,15,02,54,6.20
2013,04,15,02,55,6.20
2013,04,15,02,56,6.20
2013,04,15,02,57,6.20
2013,04,15,02,58,6.20
2013,04,15,02,59,6.20
2013,04,15,03,00,6.20
2013,04,15,03,01,6.20
2013,04,15,03,02,6.20
2013,04,15,03,03,6.20
2013,04,15,03,04,6.20
2013,04,15,03,05,6.20
2013,04,15,03,06,6.20
2013,04,15,03,07,6.20
2013,04,15,03,08,6.20
2013,04,15,03,09,6.20
2013,04,15,03,10,6.20
2013,04,15,03,11,6.20
2013,04,15,03,12,6.10
2013,04,15,03,13,6.10
2013,04,15,03,14,6.10
2013,04,15,03,15,6.10
2013,04,15,03,16,6.10
2013,04,15,03,17,6.20
2013,04,15,03,18,6.20
2013,04,15,03,19,6.20
2013,04,15,03,20,6.20
2013,04,15,03,21,6.10
2013,04,15,03,22,6.10
2013,04,15,03,23,6.10
2013,04,15,03,24,6.10
2013,04,15,03,25,6.10
2013,04,15,03,26,6.10
2013,04,15,03,27,6.10
2013,04,15,03,28,6.10
2013,04,15,03,29,6.00
2013,04,15,03,30,5.90
2013,04,15,03,31,5.90
2013,04,15,03,32,5.80
2013,04,15,03,33,5.80
2013,04,15,03,34,5.80
2013,04,15,03,35,5.80
2013,04,15,03,36,5.70
2013,04,15,03,37,5.70
2013,04,15,03,38,5.70
2013,04,15,03,39,5.70
2013,04,15,03,40,5.70
2013,04,15,03,41,5.70
2013,04,15,03,42,5.60
2013,04,15,03,43,5.60
2013,04,15,03,44,5.60
2013,04,15,03,45,5.60
2013,04,15,03,46,5.60
2013,04,15,03,47,5.60
2013,04,15,03,48,5.70
2013,04,15,03,49,5.70
2013,04,15,03,50,5.70
2013,04,15,03,51,5.70
2013,04,15,03,52,5.70
2013,04,15,03,53,5.70
2013,04,15,03,54,5.70
2013,04,15,03,55,5.80
2013,04,15,03,56,5.80
2013,04,15,03,57,5.80
2013,04,15,03,58,5.80
2013,04,15,03,59,5.80
2013,04,15,04,00,5.80
2013,04,15,04,01,5.80
2013,04,15,04,02,5.80
2013,04,15,04,03,5.90
2013,04,15,04,04,5.90
2013,04,15,04,05,5.90
2013,04,15,04,06,5.90
2013,04,15,04,07,5.90
2013,04,15,04,08,5.90
2013,04,15,04,09,6.00
2013,04,15,04,10,6.00
2013,04,15,04,11,6.00
2013,04,15,04,12,6.00
2013,04,15,04,13,6.00
2013,04,15,04,14,6.00
2013,04,15,04,15,6.00
2013,04,15,04,16,6.00
2013,04,15,04,17,6.00
2013,04,15,04,18,6.00
2013,04,15,04,19,6.00
2013,04,15,04,20,6.00
2013,04,15,04,21,5.90
2013,04,15,04,22,5.90
2013,04,15,04,23,5.90
2013,04,15,04,24,5.90
2013,04,15,04,25,5.90
2013,04,15,04,26,5.90
2013,04,15,04,27,5.90
2013,04,15,04,28,5.90
2013,04,15,04,29,5.90
2013,04,15,04,30,5.90
2013,04,15,04,31,5.90
2013,04,15,04,32,5.90
2013,04,15,04,33,5.90
2013,04,15,04,34,5.90
2013,04,15,04,35,5.90
2013,04,15,04,36,5.90
2013,04,15,04,37,5.90
2013,04,15,04,38,5.90
2013,04,15,04,39,5.90
2013,04,15,04,40,5.90
2013,04,15,04,41,5.90
2013,04,15,04,42,5.90
2013,04,15,04,43,5.90
2013,04,15,04,44,5.90
2013,04,15,04,45,5.90
2013,04,15,04,46,5.90
2013,04,15,04,47,5.90
2013,04,15,04,48,5.90
2013,04,15,04,49,5.90
2013,04,15,04,50,5.90
2013,04,15,04,51,5.90
2013,04,15,04,52,5.90
2013,04,15,04,53,5.90
2013,04,15,04,54,5.90
2013,04,15,04,55,5.90
2013,04,15,04,56,5.90
2013,04,15,04,57,5.90
2013,04,15,04,58,5.90
2013,04,15,04,59,5.90
2013,04,15,05,00,5.90
2013,04,15,05,01,5.90
2013,04,15,05,02,5.90
2013,04,15,05,03,5.90
2013,04,15,05,04,5.90
2013,04,15,05,05,5.90
2013,04,15,05,06,5.90
2013,04,15,05,07,6.00
2013,04,15,05,08,6.00
2013,04,15,05,09,6.00
2013,04,15,05,10,6.10
2013,04,15,05,11,6.10
2013,04,15,05,12,6.10
2013,04,15,05,13,6.10
2013,04,15,05,14,6.10
2013,04,15,05,15,6.10
2013,04,15,05,16,6.10
2013,04,15,05,17,6.20
2013,04,15,05,18,6.20
2013,04,15,05,19,6.20
2013,04,15,05,20,6.20
2013,04,15,05,21,6.20
2013,04,15,05,22,6.20
2013,04,15,05,23,6.20
2013,04,15,05,24,6.20
2013,04,15,05,25,6.20
2013,04,15,05,26,6.20
2013,04,15,05,27,6.20
2013,04,15,05,28,6.20
2013,04,15,05,29,6.20
2013,04,15,05,30,6.20
2013,04,15,05,31,6.20
2013,04,15,05,32,6.20
2013,04,15,05,33,6.20
2013,04,15,05,34,6.30
2013,04,15,05,35,6.30
2013,04,15,05,36,6.30
2013,04,15,05,37,6.30
2013,04,15,05,38,6.30
2013,04,15,05,39,6.30
2013,04,15,05,40,6.40
2013,04,15,05,41,6.40
2013,04,15,05,42,6.40
2013,04,15,05,43,6.40
2013,04,15,05,44,6.40
2013,04,15,05,45,6.40
2013,04,15,05,46,6.30
2013,04,15,05,47,6.30
2013,04,15,05,48,6.30
2013,04,15,05,49,6.30
2013,04,15,05,50,6.40
2013,04,15,05,51,6.40
2013,04,15,05,52,6.40
2013,04,15,05,53,6.40
2013,04,15,05,54,6.40
2013,04,15,05,55,6.40
2013,04,15,05,56,6.40
2013,04,15,05,57,6.40
2013,04,15,05,58,6.40
2013,04,15,05,59,6.40
2013,04,15,06,00,6.40
2013,04,15,06,01,6.40
2013,04,15,06,02,6.40
2013,04,15,06,03,6.40
2013,04,15,06,04,6.40
2013,04,15,06,05,6.40
2013,04,15,06,06,6.40
2013,04,15,06,07,6.40
2013,04,15,06,08,6.40
2013,04,15,06,09,6.40
2013,04,15,06,10,6.40
2013,04,15,06,11,6.40
2013,04,15,06,12,6.40
2013,04,15,06,13,6.40
2013,04,15,06,14,6.40
2013,04,15,06,15,6.40
2013,04,15,06,16,6.40
2013,04,15,06,17,6.40
2013,04,15,06,18,6.40
2013,04,15,06,19,6.40
2013,04,15,06,20,6.40
2013,04,15,06,21,6.40
2013,04,15,06,22,6.40
2013,04,15,06,23,6.40
2013,04,15,06,24,6.40
2013,04,15,06,25,6.40
2013,04,15,06,26,6.40
2013,04,15,06,27,6.40
2013,04,15,06,28,6.40
2013,04,15,06,29,6.40
2013,04,15,06,30,6.40
2013,04,15,06,31,6.40
2013,04,15,06,32,6.30
2013,04,15,06,33,6.30
2013,04,15,06,34,6.30
2013,04,15,06,35,6.30
2013,04,15,06,36,6.30
2013,04,15,06,37,6.30
2013,04,15,06,38,6.30
2013,04,15,06,39,6.30
2013,04,15,06,40,6.30
2013,04,15,06,41,6.30
2013,04,15,06,42,6.30
2013,04,15,06,43,6.30
2013,04,15,06,44,6.30
2013,04,15,06,45,6.30
2013,04,15,06,46,6.30
2013,04,15,06,47,6.30
2013,04,15,06,48,6.20
2013,04,15,06,49,6.30
2013,04,15,06,50,6.30
2013,04,15,06,51,6.30
2013,04,15,06,52,6.30
2013,04,15,06,53,6.30
2013,04,15,06,54,6.30
2013,04,15,06,55,6.30
2013,04,15,06,56,6.30
2013,04,15,06,57,6.30
2013,04,15,06,58,6.30
2013,04,15,06,59,6.30
2013,04,15,07,00,6.30
2013,04,15,07,01,6.30
2013,04,15,07,02,6.30
2013,04,15,07,03,6.30
2013,04,15,07,04,6.30
2013,04,15,07,05,6.30
2013,04,15,07,06,6.30
2013,04,15,07,07,6.30
2013,04,15,07,08,6.30
2013,04,15,07,09,6.30
2013,04,15,07,10,6.30
2013,04,15,07,11,6.30
2013,04,15,07,12,6.30
2013,04,15,07,13,6.30
2013,04,15,07,14,6.30
2013,04,15,07,15,6.30
2013,04,15,07,16,6.30
2013,04,15,07,17,6.30
2013,04,15,07,18,6.30
2013,04,15,07,19,6.30
2013,04,15,07,20,6.30
2013,04,15,07,21,6.30
2013,04,15,07,22,6.30
2013,04,15,07,23,6.30
2013,04,15,07,24,6.30
2013,04,15,07,25,6.30
2013,04,15,07,26,6.40
2013,04,15,07,27,6.40
2013,04,15,07,28,6.40
2013,04,15,07,29,6.40
2013,04,15,07,30,6.40
2013,04,15,07,31,6.40
2013,04,15,07,32,6.50
2013,04,15,07,33,6.50
2013,04,15,07,34,6.50
2013,04,15,07,35,6.50
2013,04,15,07,36,6.60
2013,04,15,07,37,6.60
2013,04,15,07,38,6.60
2013,04,15,07,39,6.60
2013,04,15,07,40,6.60
2013,04,15,07,41,6.60
2013,04,15,07,42,6.60
2013,04,15,07,43,6.60
2013,04,15,07,44,6.60
2013,04,15,07,45,6.70
2013,04,15,07,46,6.70
2013,04,15,07,47,6.70
2013,04,15,07,48,6.70
2013,04,15,07,49,6.70
2013,04,15,07,50,6.70
2013,04,15,07,51,6.70
2013,04,15,07,52,6.70
2013,04,15,07,53,6.80
2013,04,15,07,54,6.80
2013,04,15,07,55,6.80
2013,04,15,07,56,6.80
2013,04,15,07,57,6.80
2013,04,15,07,58,6.80
2013,04,15,07,59,6.90
2013,04,15,08,00,6.90
2013,04,15,08,01,6.90
2013,04,15,08,02,6.90
2013,04,15,08,03,6.90
2013,04,15,08,04,6.90
2013,04,15,08,05,7.00
2013,04,15,08,06,7.00
2013,04,15,08,07,7.00
2013,04,15,08,08,7.10
2013,04,15,08,09,7.10
2013,04,15,08,10,7.10
2013,04,15,08,11,7.10
2013,04,15,08,12,7.10
2013,04,15,08,13,7.10
2013,04,15,08,14,7.20
2013,04,15,08,15,7.20
2013,04,15,08,16,7.20
2013,04,15,08,17,7.20
2013,04,15,08,18,7.20
2013,04,15,08,19,7.20
2013,04,15,08,20,7.20
2013,04,15,08,21,7.20
2013,04,15,08,22,7.20
2013,04,15,08,23,7.20
2013,04,15,08,24,7.20
2013,04,15,08,25,7.20
2013,04,15,08,26,7.20
2013,04,15,08,27,7.20
2013,04,15,08,28,7.20
2013,04,15,08,29,7.20
2013,04,15,08,30,7.20
2013,04,15,08,31,7.30
2013,04,15,08,32,7.30
2013,04,15,08,33,7.30
2013,04,15,08,34,7.30
2013,04,15,08,35,7.40
2013,04,15,08,36,7.40
2013,04,15,08,37,7.40
2013,04,15,08,38,7.40
2013,04,15,08,39,7.50
2013,04,15,08,40,7.50
2013,04,15,08,41,7.60
2013,04,15,08,42,7.70
2013,04,15,08,43,7.70
2013,04,15,08,44,7.80
2013,04,15,08,45,7.90
2013,04,15,08,46,8.00
2013,04,15,08,47,8.00
2013,04,15,08,48,8.00
2013,04,15,08,49,7.90
2013,04,15,08,50,7.90
2013,04,15,08,51,7.90
2013,04,15,08,52,7.90
2013,04,15,08,53,7.90
2013,04,15,08,54,7.90
2013,04,15,08,55,7.90
2013,04,15,08,56,7.90
2013,04,15,08,57,7.90
2013,04,15,08,58,8.00
2013,04,15,08,59,8.00
2013,04,15,09,00,8.00
2013,04,15,09,01,8.10
2013,04,15,09,02,8.10
2013,04,15,09,03,8.10
2013,04,15,09,04,8.10
2013,04,15,09,05,8.10
2013,04,15,09,06,8.10
2013,04,15,09,07,8.10
2013,04,15,09,08,8.10
2013,04,15,09,09,8.10
2013,04,15,09,10,8.20
2013,04,15,09,11,8.20
2013,04,15,09,12,8.30
2013,04,15,09,13,8.30
2013,04,15,09,14,8.40
2013,04,15,09,15,8.50
2013,04,15,09,16,8.50
2013,04,15,09,17,8.60
2013,04,15,09,18,8.60
2013,04,15,09,19,8.60
2013,04,15,09,20,8.60
2013,04,15,09,21,8.60
2013,04,15,09,22,8.50
2013,04,15,09,23,8.50
2013,04,15,09,24,8.40
2013,04,15,09,25,8.30
2013,04,15,09,26,8.20
2013,04,15,09,27,8.20
2013,04,15,09,28,8.20
2013,04,15,09,29,8.20
2013,04,15,09,30,8.20
2013,04,15,09,31,8.30
2013,04,15,09,32,8.30
2013,04,15,09,33,8.30
2013,04,15,09,34,8.40
2013,04,15,09,35,8.50
2013,04,15,09,36,8.60
2013,04,15,09,37,8.70
2013,04,15,09,38,8.70
2013,04,15,09,39,8.80
2013,04,15,09,40,8.80
2013,04,15,09,41,8.80
2013,04,15,09,42,8.80
2013,04,15,09,43,8.80
2013,04,15,09,44,8.90
2013,04,15,09,45,9.00
2013,04,15,09,46,9.00
2013,04,15,09,47,9.10
2013,04,15,09,48,9.00
2013,04,15,09,49,9.00
2013,04,15,09,50,9.00
2013,04,15,09,51,9.00
2013,04,15,09,52,9.00
2013,04,15,09,53,9.00
2013,04,15,09,54,9.00
2013,04,15,09,55,8.90
2013,04,15,09,56,8.90
2013,04,15,09,57,8.80
2013,04,15,09,58,8.70
2013,04,15,09,59,8.70
2013,04,15,10,00,8.60
2013,04,15,10,01,8.60
2013,04,15,10,02,8.60
2013,04,15,10,03,8.50
2013,04,15,10,04,8.40
2013,04,15,10,05,8.30
2013,04,15,10,06,8.30
2013,04,15,10,07,8.30
2013,04,15,10,08,8.30
2013,04,15,10,09,8.40
2013,04,15,10,10,8.40
2013,04,15,10,11,8.50
2013,04,15,10,12,8.50
2013,04,15,10,13,8.60
2013,04,15,10,14,8.70
2013,04,15,10,15,8.80
2013,04,15,10,16,8.80
2013,04,15,10,17,8.80
2013,04,15,10,18,9.00
2013,04,15,10,19,9.10
2013,04,15,10,20,9.10
2013,04,15,10,21,9.20
2013,04,15,10,22,9.20
2013,04,15,10,23,9.20
2013,04,15,10,24,9.20
2013,04,15,10,25,9.20
2013,04,15,10,26,9.20
2013,04,15,10,27,9.20
2013,04,15,10,28,9.10
2013,04,15,10,29,9.00
2013,04,15,10,30,8.90
2013,04,15,10,31,8.80
2013,04,15,10,32,8.80
2013,04,15,10,33,8.70
2013,04,15,10,34,8.70
2013,04,15,10,35,8.90
2013,04,15,10,36,9.00
2013,04,15,10,37,9.00
2013,04,15,10,38,9.00
2013,04,15,10,39,9.00
2013,04,15,10,40,9.10
2013,04,15,10,41,9.10
2013,04,15,10,42,9.10
2013,04,15,10,43,9.10
2013,04,15,10,44,9.10
2013,04,15,10,45,9.10
2013,04,15,10,46,9.20
2013,04,15,10,47,9.30
2013,04,15,10,48,9.30
2013,04,15,10,49,9.30
2013,04,15,10,50,9.30
2013,04,15,10,51,9.30
2013,04,15,10,52,9.30
2013,04,15,10,53,9.30
2013,04,15,10,54,9.30
2013,04,15,10,55,9.40
2013,04,15,10,56,9.40
2013,04,15,10,57,9.40
2013,04,15,10,58,9.40
2013,04,15,10,59,9.50
2013,04,15,11,00,9.70
2013,04,15,11,01,9.80
2013,04,15,11,02,9.90
2013,04,15,11,03,9.90
2013,04,15,11,04,9.90
2013,04,15,11,05,9.80
2013,04,15,11,06,9.70
2013,04,15,11,07,9.70
2013,04,15,11,08,9.70
2013,04,15,11,09,9.70
2013,04,15,11,10,9.70
2013,04,15,11,11,9.60
2013,04,15,11,12,9.60
2013,04,15,11,13,9.60
2013,04,15,11,14,9.60
2013,04,15,11,15,9.70
2013,04,15,11,16,9.70
2013,04,15,11,17,9.80
2013,04,15,11,18,9.70
2013,04,15,11,19,9.80
2013,04,15,11,20,9.80
2013,04,15,11,21,9.70
2013,04,15,11,22,9.80
2013,04,15,11,23,9.80
2013,04,15,11,24,9.80
2013,04,15,11,25,9.80
2013,04,15,11,26,9.90
2013,04,15,11,27,9.90
2013,04,15,11,28,9.90
2013,04,15,11,29,9.80
2013,04,15,11,30,9.80
2013,04,15,11,31,9.80
2013,04,15,11,32,9.80
2013,04,15,11,33,9.80
2013,04,15,11,34,10.00
2013,04,15,11,35,10.00
2013,04,15,11,36,10.00
2013,04,15,11,37,9.90
2013,04,15,11,38,10.00
2013,04,15,11,39,10.10
2013,04,15,11,40,10.10
2013,04,15,11,41,10.20
2013,04,15,11,42,10.30
2013,04,15,11,43,10.40
2013,04,15,11,44,10.50
2013,04,15,11,45,10.50
2013,04,15,11,46,10.50
2013,04,15,11,47,10.50
2013,04,15,11,48,10.50
2013,04,15,11,49,10.50
2013,04,15,11,50,10.50
2013,04,15,11,51,10.50
2013,04,15,11,52,10.60
2013,04,15,11,53,10.70
2013,04,15,11,54,10.70
2013,04,15,11,55,10.80
2013,04,15,11,56,10.80
2013,04,15,11,57,10.80
2013,04,15,11,58,10.80
2013,04,15,11,59,10.80
2013,04,15,12,00,10.80
2013,04,15,12,01,10.70
2013,04,15,12,02,10.70
2013,04,15,12,03,10.60
2013,04,15,12,04,10.50
2013,04,15,12,05,10.50
2013,04,15,12,06,10.50
2013,04,15,12,07,10.50
2013,04,15,12,08,10.50
2013,04,15,12,09,10.40
2013,04,15,12,10,10.40
2013,04,15,12,11,10.50
2013,04,15,12,12,10.40
2013,04,15,12,13,10.50
2013,04,15,12,14,10.50
2013,04,15,12,15,10.60
2013,04,15,12,16,10.70
2013,04,15,12,17,10.80
2013,04,15,12,18,10.80
2013,04,15,12,19,10.80
2013,04,15,12,20,10.80
2013,04,15,12,21,10.80
2013,04,15,12,22,10.90
2013,04,15,12,23,10.80
2013,04,15,12,24,10.80
2013,04,15,12,25,10.80
2013,04,15,12,26,10.80
2013,04,15,12,27,10.80
2013,04,15,12,28,11.00
2013,04,15,12,29,11.10
2013,04,15,12,30,11.10
2013,04,15,12,31,11.20
2013,04,15,12,32,11.20
2013,04,15,12,33,11.20
2013,04,15,12,34,11.10
2013,04,15,12,35,11.10
2013,04,15,12,36,11.10
2013,04,15,12,37,11.10
2013,04,15,12,38,11.10
2013,04,15,12,39,11.00
2013,04,15,12,40,11.00
2013,04,15,12,41,11.00
2013,04,15,12,42,10.90
2013,04,15,12,43,11.00
2013,04,15,12,44,11.00
2013,04,15,12,45,11.00
2013,04,15,12,46,11.10
2013,04,15,12,47,11.20
2013,04,15,12,48,11.20
2013,04,15,12,49,11.10
2013,04,15,12,50,11.10
2013,04,15,12,51,11.10
2013,04,15,12,52,11.10
2013,04,15,12,53,11.10
2013,04,15,12,54,11.20
2013,04,15,12,55,11.30
2013,04,15,12,56,11.40
2013,04,15,12,57,11.50
2013,04,15,12,58,11.50
2013,04,15,12,59,11.60
2013,04,15,13,00,11.60
2013,04,15,13,01,11.60
2013,04,15,13,02,11.60
2013,04,15,13,03,11.60
2013,04,15,13,04,11.60
2013,04,15,13,05,11.60
2013,04,15,13,06,11.60
2013,04,15,13,07,11.60
2013,04,15,13,08,11.60
2013,04,15,13,09,11.60
2013,04,15,13,10,11.60
2013,04,15,13,11,11.70
2013,04,15,13,12,11.70
2013,04,15,13,13,11.80
2013,04,15,13,14,11.70
2013,04,15,13,15,11.70
2013,04,15,13,16,11.70
2013,04,15,13,17,11.60
2013,04,15,13,18,11.60
2013,04,15,13,19,11.60
2013,04,15,13,20,11.50
2013,04,15,13,21,11.50
2013,04,15,13,22,11.50
2013,04,15,13,23,11.60
2013,04,15,13,24,11.60
2013,04,15,13,25,11.60
2013,04,15,13,26,11.60
2013,04,15,13,27,11.70
2013,04,15,13,28,11.80
2013,04,15,13,29,11.80
2013,04,15,13,30,11.80
2013,04,15,13,31,11.90
2013,04,15,13,32,11.90
2013,04,15,13,33,11.90
2013,04,15,13,34,11.90
2013,04,15,13,35,12.00
2013,04,15,13,36,12.10
2013,04,15,13,37,12.10
2013,04,15,13,38,12.20
2013,04,15,13,39,12.30
2013,04,15,13,40,12.30
2013,04,15,13,41,12.30
2013,04,15,13,42,12.30
2013,04,15,13,43,12.30
2013,04,15,13,44,12.40
2013,04,15,13,45,12.40
2013,04,15,13,46,12.40
2013,04,15,13,47,12.30
2013,04,15,13,48,12.40
2013,04,15,13,49,12.50
2013,04,15,13,50,12.60
2013,04,15,13,51,12.70
2013,04,15,13,52,12.70
2013,04,15,13,53,12.80
2013,04,15,13,54,12.80
2013,04,15,13,55,12.70
2013,04,15,13,56,12.70
2013,04,15,13,57,12.60
2013,04,15,13,58,12.60
2013,04,15,13,59,12.50
2013,04,15,14,00,12.50
2013,04,15,14,01,12.60
2013,04,15,14,02,12.50
2013,04,15,14,03,12.50
2013,04,15,14,04,12.60
2013,04,15,14,05,12.60
2013,04,15,14,06,12.50
2013,04,15,14,07,12.40
2013,04,15,14,08,12.40
2013,04,15,14,09,12.50
2013,04,15,14,10,12.50
2013,04,15,14,11,12.50
2013,04,15,14,12,12.50
2013,04,15,14,13,12.40
2013,04,15,14,14,12.50
2013,04,15,14,15,12.70
2013,04,15,14,16,12.80
2013,04,15,14,17,12.70
2013,04,15,14,18,12.70
2013,04,15,14,19,12.70
2013,04,15,14,20,12.60
2013,04,15,14,21,12.60
2013,04,15,14,22,12.70
2013,04,15,14,23,12.80
2013,04,15,14,24,13.00
2013,04,15,14,25,13.10
2013,04,15,14,26,13.20
2013,04,15,14,27,13.20
2013,04,15,14,28,13.10
2013,04,15,14,29,13.10
2013,04,15,14,30,13.10
2013,04,15,14,31,13.20
2013,04,15,14,32,13.20
2013,04,15,14,33,13.20
2013,04,15,14,34,13.20
2013,04,15,14,35,13.30
2013,04,15,14,36,13.30
2013,04,15,14,37,13.40
2013,04,15,14,38,13.40
2013,04,15,14,39,13.40
2013,04,15,14,40,13.40
2013,04,15,14,41,13.50
2013,04,15,14,42,13.50
2013,04,15,14,43,13.60
2013,04,15,14,44,13.60
2013,04,15,14,45,13.60
2013,04,15,14,46,13.60
2013,04,15,14,47,13.60
2013,04,15,14,48,13.70
2013,04,15,14,49,13.70
2013,04,15,14,50,13.60
2013,04,15,14,51,13.60
2013,04,15,14,52,13.60
2013,04,15,14,53,13.60
2013,04,15,14,54,13.60
2013,04,15,14,55,13.70
2013,04,15,14,56,13.70
2013,04,15,14,57,13.80
2013,04,15,14,58,13.70
2013,04,15,14,59,13.70
2013,04,15,15,00,13.80
2013,04,15,15,01,13.80
2013,04,15,15,02,13.80
2013,04,15,15,03,13.90
2013,04,15,15,04,13.90
2013,04,15,15,05,13.90
2013,04,15,15,06,13.90
2013,04,15,15,07,14.00
2013,04,15,15,08,14.00
2013,04,15,15,09,14.00
2013,04,15,15,10,14.10
2013,04,15,15,11,14.10
2013,04,15,15,12,14.10
2013,04,15,15,13,14.10
2013,04,15,15,14,14.20
2013,04,15,15,15,14.20
2013,04,15,15,16,14.20
2013,04,15,15,17,14.20
2013,04,15,15,18,14.20
2013,04,15,15,19,14.10
2013,04,15,15,20,14.10
2013,04,15,15,21,14.00
2013,04,15,15,22,14.00
2013,04,15,15,23,14.00
2013,04,15,15,24,13.90
2013,04,15,15,25,13.90
2013,04,15,15,26,13.90
2013,04,15,15,27,14.00
2013,04,15,15,28,14.10
2013,04,15,15,29,14.10
2013,04,15,15,30,14.10
2013,04,15,15,31,14.20
2013,04,15,15,32,14.20
2013,04,15,15,33,14.30
2013,04,15,15,34,14.30
2013,04,15,15,35,14.30
2013,04,15,15,36,14.30
2013,04,15,15,37,14.30
2013,04,15,15,38,14.30
2013,04,15,15,39,14.40
2013,04,15,15,40,14.40
2013,04,15,15,41,14.40
2013,04,15,15,42,14.30
2013,04,15,15,43,14.40
2013,04,15,15,44,14.40
2013,04,15,15,45,14.40
2013,04,15,15,46,14.40
2013,04,15,15,47,14.40
2013,04,15,15,48,14.50
2013,04,15,15,49,14.50
2013,04,15,15,50,14.50
2013,04,15,15,51,14.50
2013,04,15,15,52,14.50
2013,04,15,15,53,14.60
2013,04,15,15,54,14.60
2013,04,15,15,55,14.60
2013,04,15,15,56,14.60
2013,04,15,15,57,14.60
2013,04,15,15,58,14.50
2013,04,15,15,59,14.50
2013,04,15,16,00,14.50
2013,04,15,16,01,14.50
2013,04,15,16,02,14.50
2013,04,15,16,03,14.60
2013,04,15,16,04,14.60
2013,04,15,16,05,14.60
2013,04,15,16,06,14.70
2013,04,15,16,07,14.70
2013,04,15,16,08,14.70
2013,04,15,16,09,14.70
2013,04,15,16,10,14.70
2013,04,15,16,11,14.70
2013,04,15,16,12,14.70
2013,04,15,16,13,14.70
2013,04,15,16,14,14.70
2013,04,15,16,15,14.80
2013,04,15,16,16,14.80
2013,04,15,16,17,14.90
2013,04,15,16,18,15.00
2013,04,15,16,19,15.10
2013,04,15,16,20,15.20
2013,04,15,16,21,15.20
2013,04,15,16,22,15.20
2013,04,15,16,23,15.20
2013,04,15,16,24,15.20
2013,04,15,16,25,15.20
2013,04,15,16,26,15.20
2013,04,15,16,27,15.30
2013,04,15,16,28,15.30
2013,04,15,16,29,15.30
2013,04,15,16,30,15.30
2013,04,15,16,31,15.30
2013,04,15,16,32,15.20
2013,04,15,16,33,15.20
2013,04,15,16,34,15.20
2013,04,15,16,35,15.20
2013,04,15,16,36,15.30
2013,04,15,16,37,15.30
2013,04,15,16,38,15.30
2013,04,15,16,39,15.30
2013,04,15,16,40,15.20
2013,04,15,16,41,15.20
2013,04,15,16,42,15.20
2013,04,15,16,43,15.20
2013,04,15,16,44,15.30
2013,04,15,16,45,15.30
2013,04,15,16,46,15.20
2013,04,15,16,47,15.20
2013,04,15,16,48,15.10
2013,04,15,16,49,15.20
2013,04,15,16,50,15.20
2013,04,15,16,51,15.20
2013,04,15,16,52,15.20
2013,04,15,16,53,15.20
2013,04,15,16,54,15.20
2013,04,15,16,55,15.30
2013,04,15,16,56,15.30
2013,04,15,16,57,15.30
2013,04,15,16,58,15.30
2013,04,15,16,59,15.20
2013,04,15,17,00,15.20
2013,04,15,17,01,15.30
2013,04,15,17,02,15.30
2013,04,15,17,03,15.20
2013,04,15,17,04,15.20
2013,04,15,17,05,15.20
2013,04,15,17,06,15.10
2013,04,15,17,07,15.00
2013,04,15,17,08,15.00
2013,04,15,17,09,14.90
2013,04,15,17,10,14.80
2013,04,15,17,11,14.70
2013,04,15,17,12,14.70
2013,04,15,17,13,14.60
2013,04,15,17,14,14.60
2013,04,15,17,15,14.60
2013,04,15,17,16,14.50
2013,04,15,17,17,14.50
2013,04,15,17,18,14.40
2013,04,15,17,19,14.40
2013,04,15,17,20,14.40
2013,04,15,17,21,14.40
2013,04,15,17,22,14.40
2013,04,15,17,23,14.50
2013,04,15,17,24,14.60
2013,04,15,17,25,14.60
2013,04,15,17,26,14.60
2013,04,15,17,27,14.60
2013,04,15,17,28,14.50
2013,04,15,17,29,14.50
2013,04,15,17,30,14.40
2013,04,15,17,31,14.40
2013,04,15,17,32,14.50
2013,04,15,17,33,14.50
2013,04,15,17,34,14.60
2013,04,15,17,35,14.60
2013,04,15,17,36,14.70
2013,04,15,17,37,14.70
2013,04,15,17,38,14.80
2013,04,15,17,39,14.90
2013,04,15,17,40,14.90
2013,04,15,17,41,14.90
2013,04,15,17,42,14.90
2013,04,15,17,43,14.90
2013,04,15,17,44,15.00
2013,04,15,17,45,15.00
2013,04,15,17,46,15.20
2013,04,15,17,47,15.30
2013,04,15,17,48,15.40
2013,04,15,17,49,15.60